{"data":{"norad_id":62528,"intl_designator":"2025-004T","name":"STARLINK-32786","alt_names":[],"object_type":"PAYLOAD","status":"ACTIVE","operator":null,"country":"US","launch_date":"2025-01-08","launch_site_code":"AFETR","launch_vehicle":null,"mission":null,"orbit_class":"UNKNOWN","rcs_meters":null,"size_class":null,"mass_kg":null,"dimensions":null,"purposes":["comms"],"wikipedia_slug":null,"has_3d_model":false,"image_url":null,"decayed_at":null,"tle_current":{"epoch":"2026-05-24T11:22:33.005568Z","epoch_age_seconds":134700,"freshness":"FRESH","line1":"1 62528U 25004T   26144.47399312  .00014647  00000+0  54049-3 0  9995","line2":"2 62528  43.0034 151.4712 0001835 268.1075  91.9566 15.27594207 77109","mean_motion":15.27594207,"eccentricity":0.0001835,"inclination_deg":43.0034,"raan_deg":151.4712,"arg_perigee_deg":268.1075,"mean_anomaly_deg":91.9566,"bstar":0.00054049,"rev_number":7710,"period_min":94.265872009817,"perigee_km":481.74753565798,"apogee_km":484.26557534285,"semimajor_km":6861.1435555004,"source":"CELESTRAK","updated_at":"2026-05-25T13:38:19.705398Z"}}}